Location: *
(37.5724°S, 58.0067°E)
Time: 04:16:46
(UTC+00:00)

CZ-4 R/B - Pass Details

Date: 18 January 2021
Orbit: 531 x 598 km, 97.7° (Epoch: 07 March)

Event Time Altitude Azimuth Distance (km) Brightness Sun altitude
Rises 15:50:18 0° 173° (S) 2,861 5.3 -4.4°
Reaches altitude 10° 15:52:30 10° 177° (S) 1,959 4.5 -4.8°
Maximum altitude 15:56:41 57° 255° (WSW) 714 2.3 -5.5°
Drops below altitude 10° 16:00:51 10° 333° (NNW) 1,945 4.1 -6.2°
Sets 16:03:02 0° 337° (NNW) 2,839 4.9 -6.6°
